Marrakech, Morocco

7:19 AM WET on December 03, 2016 (GMT +0000)
Menara

Weather History for GMMX - March, 2013

Change the Weather History Date:

Saturday, March 16, 2013

  Actual Average Record
Temperature  
Mean Temperature 72 °F -  
Max Temperature 89 °F 74 °F 89 °F (2013)
Min Temperature 55 °F 51 °F 44 °F (1999)
Cooling Degree Days 7    
Growing Degree Days 22 (Base 50)    
Moisture  
Dew Point 47 °F    
Average Humidity 44    
Maximum Humidity 77    
Minimum Humidity 14    
Precipitation  
Precipitation 0.00 in 0.05 in - ()
Sea Level Pressure  
Sea Level Pressure 29.85 in    
Wind  
Wind Speed 5 mph ()    
Max Wind Speed 21 mph    
Max Gust Speed 30 mph    
Visibility 6.0 miles    
Events      
Averages and records for this station are not official NWS values.
T = Trace of Precipitation, MM = Missing Value Source: Averaged Metar Reports

Daily Weather History Graph

Daily Weather History Graph

Search for Another Location

Airport or City:

Trip Planner

Search our weather history database for the weather conditions in past years. The results will help you decide how hot, cold, wet, or windy it might be!

Date:

Astronomy

Mar. 16, 2013 Rise Set
Actual Time 6:40 AM WET 6:40 PM WET
Civil Twilight 6:16 AM WET 7:05 PM WET
Nautical Twilight 5:48 AM WET 7:33 PM WET
Astronomical Twilight 5:20 AM WET 8:01 PM WET
Moon 9:19 AM WET (3/16) 11:18 PM WET (3/16)
Length of Visible Light 12h 48m
Length of Day
12h 00m
Waxing Crescent, 21% of the Moon is Illuminated
Mar 16
Waxing Crescent
Mar 19
First Quarter
Mar 27
Full
Apr 3
Last Quarter
Apr 10
New

Hourly Weather History & Observations

Time (WET) Temp. Heat Index Dew Point Humidity Pressure Visibility Wind Dir Wind Speed Gust Speed Precip Events Conditions
12:00 AM 61 °F - 42 °F 39% 29.94 in 6 mi SE 2.3 mph - -  
12:00 AM 60.8 °F - 42.8 °F 52% 29.95 in - Variable 2.3 mph - N/A   Clear
12:30 AM 60.8 °F - 42.8 °F 52% 29.95 in - Calm Calm - N/A   Clear
1:00 AM 59.0 °F - 42.8 °F 55% 29.95 in - Calm Calm - N/A   Clear
1:30 AM 57.2 °F - 44.6 °F 63% 29.95 in - Variable 2.3 mph - N/A   Clear
2:00 AM 59.0 °F - 44.6 °F 59% 29.92 in - NE 3.5 mph - N/A   Clear
2:30 AM 57.2 °F - 44.6 °F 63% 29.92 in - ENE 4.6 mph - N/A   Clear
3:00 AM 58 °F - 46 °F 56% 29.90 in 6 mi ESE 5.8 mph - -  
3:00 AM 59.0 °F - 46.4 °F 63% 29.92 in - ESE 5.8 mph - N/A   Clear
3:30 AM 57.2 °F - 48.2 °F 72% 29.89 in - East 4.6 mph - N/A   Clear
4:00 AM 55.4 °F - 48.2 °F 77% 29.89 in - East 4.6 mph - N/A   Clear
4:30 AM 57.2 °F - 48.2 °F 72% 29.89 in - East 5.8 mph - N/A   Clear
5:00 AM 57.2 °F - 48.2 °F 72% 29.86 in - ENE 5.8 mph - N/A   Clear
5:30 AM 57.2 °F - 48.2 °F 72% 29.89 in - ENE 1.2 mph - N/A   Clear
6:00 AM 55.4 °F - 46.4 °F 72% 29.89 in - NE 3.5 mph - N/A   Clear
6:30 AM 55.4 °F - 46.4 °F 72% 29.89 in - Calm Calm - N/A   Clear
7:00 AM 57.2 °F - 48.2 °F 72% 29.89 in - SE 3.5 mph - N/A   Clear
7:30 AM 60.8 °F - 48.2 °F 63% 29.92 in - SE 3.5 mph - N/A   Clear
8:00 AM 60.8 °F - 50.0 °F 68% 29.92 in - ENE 5.8 mph - N/A   Clear
9:00 AM 66 °F - 50 °F 46% 29.88 in 6 mi East 6.9 mph - -   Partly Cloudy
9:00 AM 66.2 °F - 50.0 °F 56% 29.92 in 6.2 mi East 5.8 mph - N/A   Mostly Cloudy
9:30 AM 66.2 °F - 51.8 °F 60% 29.92 in 6.2 mi East 8.1 mph - N/A   Mostly Cloudy
10:00 AM 69.8 °F - 50.0 °F 49% 29.92 in 6.2 mi ESE 6.9 mph - N/A   Mostly Cloudy
10:30 AM 69.8 °F - 50.0 °F 49% 29.92 in 6.2 mi East 8.1 mph - N/A   Mostly Cloudy
11:00 AM 73.4 °F - 51.8 °F 47% 29.89 in 5.0 mi East 5.8 mph - N/A   Mostly Cloudy
11:30 AM 75.2 °F - 51.8 °F 44% 29.89 in 5.0 mi NE 5.8 mph - N/A   Mostly Cloudy
12:00 PM 75 °F - 53 °F 35% 29.82 in 6 mi ENE 4.6 mph - -   Overcast
12:00 PM 75.2 °F - 53.6 °F 47% 29.89 in 5.6 mi ENE 4.6 mph - N/A   Mostly Cloudy
12:30 PM 77.0 °F - 51.8 °F 41% 29.86 in 5.6 mi NE 6.9 mph - N/A   Mostly Cloudy
1:00 PM 78.8 °F - 51.8 °F 39% 29.86 in 6.2 mi East 5.8 mph - N/A   Mostly Cloudy
1:30 PM 80.6 °F - 51.8 °F 37% 29.86 in 6.2 mi East 3.5 mph - N/A   Mostly Cloudy
2:00 PM 82.4 °F 81.4 °F 53.6 °F 37% 29.83 in 6.2 mi NE 5.8 mph - N/A   Mostly Cloudy
2:30 PM 82.4 °F - 51.8 °F 35% 29.83 in 5.6 mi NE 3.5 mph - N/A   Mostly Cloudy
3:00 PM 84 °F - 52 °F 23% 29.73 in 6 mi North 1.2 mph - -   Overcast
3:00 PM 84.2 °F - 51.8 °F 33% 29.83 in 6.2 mi Variable 2.3 mph - N/A   Mostly Cloudy
3:30 PM 84.2 °F - 48.2 °F 29% 29.80 in 6.2 mi Variable 2.3 mph - N/A   Mostly Cloudy
4:00 PM 87.8 °F - 48.2 °F 25% 29.83 in 6.2 mi Variable 2.3 mph - N/A   Mostly Cloudy
4:30 PM 89.6 °F - 48.2 °F 24% 29.80 in 6.2 mi Calm Calm - N/A   Mostly Cloudy
5:00 PM 86.0 °F - 46.4 °F 25% 29.80 in 6.2 mi Variable 2.3 mph - N/A   Mostly Cloudy
5:30 PM 84.2 °F - 46.4 °F 27% 29.80 in 6.2 mi NNW 3.5 mph - N/A   Mostly Cloudy
6:00 PM 81 °F - 47 °F 20% 29.71 in 6 mi WSW 3.5 mph - -   Overcast
6:00 PM 80.6 °F - 48.2 °F 32% 29.80 in 6.2 mi West 3.5 mph - N/A   Mostly Cloudy
6:30 PM 80.6 °F - 46.4 °F 30% 29.80 in 6.2 mi NW 4.6 mph - N/A   Mostly Cloudy
7:00 PM 78.8 °F - 44.6 °F 30% 29.77 in 5.0 mi SSE 5.8 mph - N/A   Mostly Cloudy
7:30 PM 77.0 °F - 48.2 °F 36% 29.77 in 6.2 mi SSE 6.9 mph - N/A   Mostly Cloudy
8:00 PM 78.8 °F - 39.2 °F 24% 29.77 in 6.2 mi South 10.4 mph - N/A   Scattered Clouds
8:30 PM 78.8 °F - 37.4 °F 23% 29.80 in 6.2 mi SSW 16.1 mph - N/A   Partly Cloudy
9:00 PM 79 °F - 38 °F 14% 29.72 in 6 mi South 13.8 mph - -   Scattered Clouds
9:00 PM 78.8 °F - 37.4 °F 23% 29.80 in 6.2 mi South 15.0 mph - N/A   Partly Cloudy
9:30 PM 78.8 °F - 37.4 °F 23% 29.77 in 6.2 mi South 18.4 mph - N/A   Partly Cloudy
10:00 PM 78.8 °F - 37.4 °F 23% 29.77 in 6.2 mi SSW 18.4 mph 29.9 mph N/A   Partly Cloudy
10:30 PM 78.8 °F - 37.4 °F 23% 29.77 in 6.2 mi SSW 18.4 mph 29.9 mph N/A   Scattered Clouds
11:00 PM 78.8 °F - 37.4 °F 23% 29.77 in 6.2 mi South 17.3 mph - N/A   Scattered Clouds
11:30 PM 78.8 °F - 37.4 °F 23% 29.74 in 6.2 mi South 20.7 mph - N/A   Scattered Clouds